GEFSNE_prec_meanprecacc_168.txt.gz
Total_Precipitation_Accumulation
0.24 0.24 0.26 0.24 0.24 0.25 0.30 0.43 0.60 0.47 0.17 0.12 0.19 0.20 0.21 0.24 0.29 0.32 0.30 0.32 0.38 0.42 0.45 0.54 0.64 0.73 0.85 1.11 1.62 2.29 2.82 3.17 3.10 2.76 2.45 2.37 2.63 2.99
0.31 0.31 0.31 0.30 0.30 0.29 0.30 0.33 0.45 0.61 0.42 0.13 0.17 0.23 0.27 0.27 0.31 0.32 0.31 0.34 0.36 0.41 0.44 0.48 0.56 0.66 0.78 0.93 1.12 1.56 2.18 2.67 3.02 3.15 3.05 2.87 2.84 3.06
0.36 0.38 0.40 0.40 0.40 0.37 0.37 0.37 0.40 0.54 0.56 0.19 0.11 0.18 0.29 0.33 0.33 0.30 0.29 0.28 0.26 0.32 0.41 0.47 0.53 0.60 0.67 0.79 0.94 1.17 1.63 2.13 2.55 3.01 3.31 3.30 3.14 3.08
0.41 0.44 0.46 0.46 0.48 0.47 0.48 0.47 0.45 0.49 0.59 0.40 0.17 0.17 0.25 0.33 0.38 0.37 0.29 0.26 0.24 0.26 0.36 0.47 0.54 0.60 0.64 0.70 0.79 0.96 1.24 1.70 2.07 2.38 2.81 3.06 3.10 3.22
0.38 0.44 0.49 0.54 0.58 0.56 0.56 0.55 0.50 0.45 0.48 0.49 0.30 0.21 0.24 0.31 0.36 0.39 0.36 0.33 0.28 0.28 0.32 0.42 0.52 0.58 0.64 0.69 0.74 0.81 0.90 1.14 1.56 2.03 2.46 2.82 2.90 2.91
0.38 0.42 0.48 0.57 0.64 0.70 0.75 0.67 0.59 0.61 0.59 0.57 0.44 0.33 0.30 0.32 0.43 0.47 0.45 0.42 0.41 0.35 0.33 0.35 0.44 0.54 0.57 0.58 0.60 0.67 0.77 0.97 1.30 1.73 2.07 2.45 2.67 2.67
0.42 0.44 0.48 0.60 0.78 0.95 1.06 1.00 0.94 0.95 0.87 0.83 0.70 0.53 0.44 0.47 0.54 0.54 0.57 0.51 0.50 0.49 0.44 0.35 0.35 0.36 0.40 0.47 0.53 0.58 0.69 0.81 0.97 1.28 1.69 2.04 2.37 2.60
0.48 0.44 0.42 0.49 0.57 0.72 0.93 1.00 1.05 1.12 1.14 1.10 1.01 0.86 0.62 0.55 0.60 0.73 0.83 0.82 0.71 0.51 0.46 0.42 0.41 0.43 0.39 0.40 0.49 0.54 0.59 0.69 0.83 1.03 1.29 1.59 1.90 2.29
0.40 0.36 0.35 0.35 0.38 0.38 0.48 0.55 0.64 0.78 0.98 1.13 1.22 1.01 0.78 0.69 0.81 0.98 1.02 1.00 0.81 0.64 0.67 0.69 0.54 0.50 0.45 0.49 0.57 0.55 0.60 0.70 0.78 0.88 1.07 1.31 1.55 1.85
0.31 0.34 0.36 0.34 0.33 0.39 0.46 0.47 0.44 0.48 0.67 0.90 1.05 0.96 0.88 0.87 1.01 1.24 1.38 1.44 1.16 0.87 0.85 1.01 0.75 0.62 0.54 0.52 0.59 0.59 0.59 0.64 0.72 0.81 0.93 1.07 1.28 1.54
0.28 0.38 0.43 0.40 0.39 0.51 0.64 0.62 0.46 0.38 0.44 0.72 0.98 1.02 1.06 1.24 1.43 1.75 2.00 2.06 1.79 1.26 1.05 1.16 1.00 0.80 0.70 0.62 0.62 0.67 0.66 0.65 0.68 0.77 0.88 0.98 1.10 1.34
0.28 0.38 0.58 0.57 0.54 0.58 0.66 0.67 0.61 0.41 0.37 0.42 0.51 0.62 0.69 0.76 1.04 1.41 1.63 1.80 1.79 1.60 1.23 1.19 1.17 1.10 1.10 0.80 0.63 0.57 0.60 0.69 0.73 0.77 0.86 0.95 1.07 1.13
0.37 0.44 0.56 0.55 0.55 0.56 0.62 0.63 0.62 0.58 0.56 0.55 0.49 0.44 0.47 0.58 0.73 1.00 1.23 1.43 1.60 1.54 1.24 1.30 1.40 1.28 1.22 0.98 0.72 0.62 0.54 0.53 0.57 0.69 0.82 0.95 1.08 1.17
0.42 0.37 0.44 0.47 0.52 0.55 0.53 0.54 0.57 0.62 0.60 0.51 0.42 0.35 0.35 0.43 0.54 0.72 0.96 1.11 1.21 1.26 1.15 1.28 1.52 1.36 1.26 1.03 0.79 0.74 0.67 0.61 0.54 0.55 0.63 0.89 1.07 1.19
0.44 0.57 0.51 0.44 0.41 0.35 0.31 0.37 0.40 0.41 0.46 0.43 0.34 0.25 0.24 0.29 0.38 0.52 0.69 0.87 0.99 1.03 1.07 1.12 1.26 1.30 1.36 1.21 0.82 0.71 0.78 0.78 0.68 0.61 0.63 0.71 0.83 0.97
0.36 0.43 0.42 0.32 0.24 0.18 0.16 0.18 0.21 0.28 0.36 0.39 0.30 0.22 0.19 0.24 0.32 0.42 0.59 0.75 0.94 0.97 0.97 1.04 1.15 1.36 1.49 1.21 0.98 0.82 0.77 0.89 0.85 0.73 0.67 0.68 0.72 0.77
0.57 0.54 0.43 0.31 0.26 0.21 0.16 0.13 0.15 0.21 0.28 0.29 0.28 0.26 0.24 0.25 0.27 0.34 0.53 0.71 0.89 0.91 0.95 1.08 1.23 1.37 1.50 1.47 1.36 1.05 0.87 0.85 0.88 0.87 0.79 0.79 0.82 0.81
0.60 0.57 0.38 0.28 0.25 0.22 0.20 0.17 0.15 0.16 0.18 0.23 0.27 0.27 0.28 0.29 0.29 0.32 0.48 0.66 0.76 0.78 0.86 1.00 1.27 1.60 1.80 1.80 1.53 1.26 1.03 0.95 1.01 1.05 0.95 0.89 0.89 0.83
0.43 0.34 0.24 0.21 0.19 0.18 0.18 0.18 0.16 0.12 0.16 0.22 0.26 0.27 0.30 0.34 0.35 0.38 0.45 0.57 0.67 0.72 0.80 0.93 1.20 1.58 1.75 1.68 1.61 1.38 1.16 1.01 1.09 1.25 1.18 0.94 0.83 0.77
0.22 0.22 0.20 0.18 0.18 0.19 0.18 0.18 0.17 0.16 0.18 0.22 0.24 0.25 0.31 0.40 0.42 0.40 0.44 0.57 0.67 0.74 0.83 0.94 1.15 1.37 1.52 1.34 1.32 1.40 1.31 1.16 1.14 1.29 1.27 1.06 0.95 1.00
0.17 0.17 0.18 0.20 0.21 0.21 0.19 0.19 0.20 0.20 0.18 0.21 0.23 0.24 0.29 0.40 0.42 0.37 0.41 0.52 0.73 0.84 0.87 0.89 1.03 1.23 1.44 1.52 1.51 1.45 1.45 1.42 1.27 1.24 1.21 1.15 1.11 1.12
0.20 0.21 0.19 0.20 0.22 0.23 0.23 0.22 0.22 0.20 0.18 0.21 0.23 0.24 0.29 0.38 0.42 0.39 0.45 0.56 0.66 0.74 0.79 0.84 0.97 1.29 1.67 1.78 1.62 1.44 1.46 1.52 1.60 1.53 1.38 1.16 1.08 1.04
0.27 0.26 0.23 0.21 0.21 0.24 0.26 0.24 0.23 0.20 0.18 0.22 0.25 0.26 0.30 0.38 0.39 0.43 0.48 0.54 0.63 0.68 0.74 0.88 1.06 1.33 1.58 1.59 1.56 1.48 1.37 1.37 1.46 1.57 1.73 1.51 1.11 0.87

GEFSNE_prec_meanprecacc_174.txt.gz
Total_Precipitation_Accumulation
0.24 0.25 0.27 0.25 0.24 0.26 0.31 0.44 0.61 0.48 0.18 0.12 0.19 0.20 0.21 0.24 0.29 0.32 0.30 0.32 0.38 0.42 0.46 0.54 0.64 0.73 0.86 1.11 1.62 2.30 2.83 3.18 3.11 2.78 2.47 2.40 2.66 3.03
0.32 0.32 0.31 0.31 0.30 0.30 0.31 0.34 0.47 0.63 0.43 0.13 0.17 0.23 0.27 0.27 0.31 0.32 0.31 0.34 0.36 0.41 0.44 0.48 0.57 0.66 0.78 0.93 1.13 1.57 2.20 2.69 3.04 3.18 3.08 2.91 2.88 3.10
0.36 0.39 0.40 0.40 0.40 0.38 0.38 0.38 0.41 0.55 0.58 0.20 0.11 0.18 0.29 0.34 0.34 0.31 0.29 0.28 0.26 0.32 0.41 0.47 0.54 0.60 0.67 0.80 0.95 1.18 1.64 2.14 2.58 3.04 3.34 3.33 3.18 3.12
0.41 0.45 0.46 0.46 0.48 0.48 0.49 0.47 0.46 0.49 0.60 0.41 0.18 0.17 0.26 0.34 0.38 0.37 0.29 0.26 0.24 0.27 0.36 0.47 0.54 0.60 0.64 0.71 0.80 0.97 1.25 1.72 2.09 2.39 2.83 3.09 3.13 3.25
0.38 0.44 0.49 0.55 0.58 0.56 0.57 0.55 0.51 0.45 0.48 0.50 0.30 0.22 0.25 0.31 0.36 0.39 0.36 0.33 0.28 0.28 0.32 0.42 0.53 0.58 0.64 0.70 0.75 0.81 0.91 1.15 1.56 2.04 2.47 2.84 2.92 2.94
0.38 0.42 0.48 0.57 0.65 0.71 0.75 0.67 0.59 0.61 0.59 0.58 0.45 0.34 0.30 0.32 0.43 0.47 0.45 0.42 0.41 0.35 0.33 0.35 0.44 0.54 0.57 0.58 0.61 0.68 0.77 0.98 1.31 1.74 2.09 2.47 2.69 2.68
0.42 0.44 0.48 0.61 0.78 0.95 1.06 1.00 0.94 0.95 0.88 0.84 0.71 0.54 0.45 0.47 0.54 0.54 0.58 0.51 0.50 0.49 0.44 0.35 0.35 0.36 0.40 0.47 0.53 0.58 0.69 0.81 0.98 1.29 1.71 2.06 2.39 2.63
0.49 0.44 0.42 0.49 0.58 0.72 0.93 1.00 1.06 1.13 1.15 1.11 1.02 0.87 0.63 0.55 0.60 0.73 0.83 0.83 0.71 0.51 0.46 0.42 0.41 0.43 0.39 0.40 0.49 0.54 0.60 0.70 0.85 1.05 1.31 1.61 1.92 2.32
0.40 0.36 0.35 0.35 0.38 0.38 0.48 0.56 0.64 0.79 0.99 1.14 1.23 1.01 0.79 0.69 0.82 0.99 1.03 1.01 0.81 0.65 0.67 0.70 0.54 0.50 0.46 0.49 0.57 0.55 0.61 0.71 0.79 0.89 1.08 1.33 1.57 1.88
0.31 0.34 0.36 0.34 0.33 0.39 0.46 0.48 0.45 0.48 0.67 0.90 1.05 0.96 0.88 0.88 1.02 1.25 1.39 1.44 1.16 0.87 0.85 1.01 0.76 0.62 0.54 0.52 0.60 0.59 0.60 0.65 0.73 0.83 0.94 1.09 1.30 1.57
0.29 0.39 0.44 0.40 0.40 0.52 0.65 0.63 0.47 0.39 0.44 0.72 0.98 1.03 1.07 1.24 1.43 1.75 2.01 2.07 1.79 1.26 1.05 1.17 1.00 0.80 0.70 0.62 0.62 0.67 0.67 0.65 0.69 0.78 0.89 0.99 1.12 1.36
0.29 0.39 0.58 0.57 0.55 0.59 0.67 0.68 0.62 0.42 0.38 0.43 0.52 0.62 0.69 0.76 1.04 1.41 1.64 1.81 1.80 1.61 1.24 1.20 1.18 1.10 1.10 0.80 0.63 0.57 0.60 0.69 0.73 0.78 0.87 0.96 1.07 1.13
0.38 0.44 0.57 0.57 0.57 0.58 0.64 0.64 0.64 0.60 0.58 0.56 0.50 0.45 0.48 0.59 0.73 1.00 1.24 1.44 1.62 1.56 1.25 1.32 1.41 1.29 1.23 0.99 0.72 0.63 0.55 0.53 0.57 0.69 0.82 0.95 1.09 1.18
0.43 0.38 0.45 0.49 0.54 0.58 0.56 0.56 0.59 0.64 0.61 0.53 0.44 0.36 0.36 0.43 0.55 0.72 0.97 1.11 1.22 1.27 1.16 1.29 1.53 1.38 1.27 1.05 0.80 0.74 0.68 0.61 0.55 0.56 0.63 0.89 1.07 1.19
0.45 0.59 0.54 0.47 0.44 0.38 0.34 0.39 0.42 0.43 0.48 0.45 0.36 0.27 0.25 0.30 0.39 0.53 0.69 0.88 1.00 1.04 1.07 1.12 1.26 1.31 1.37 1.22 0.83 0.72 0.78 0.79 0.69 0.62 0.63 0.71 0.83 0.97
0.37 0.45 0.45 0.36 0.28 0.22 0.20 0.21 0.23 0.30 0.38 0.41 0.32 0.23 0.21 0.25 0.33 0.44 0.60 0.75 0.95 0.97 0.97 1.05 1.15 1.37 1.50 1.22 0.99 0.82 0.77 0.89 0.86 0.74 0.68 0.68 0.73 0.78
0.58 0.56 0.45 0.34 0.28 0.23 0.18 0.15 0.16 0.22 0.30 0.31 0.29 0.28 0.25 0.26 0.29 0.35 0.54 0.71 0.90 0.91 0.95 1.08 1.23 1.37 1.50 1.47 1.37 1.05 0.87 0.85 0.88 0.87 0.80 0.80 0.82 0.81
0.62 0.59 0.40 0.30 0.27 0.24 0.23 0.20 0.17 0.18 0.20 0.25 0.28 0.29 0.30 0.30 0.31 0.33 0.49 0.66 0.76 0.78 0.86 1.01 1.28 1.60 1.81 1.80 1.53 1.26 1.03 0.95 1.01 1.05 0.95 0.89 0.89 0.83
0.46 0.38 0.28 0.24 0.22 0.21 0.21 0.21 0.19 0.15 0.18 0.24 0.28 0.29 0.32 0.35 0.37 0.39 0.46 0.58 0.67 0.72 0.80 0.93 1.21 1.59 1.76 1.68 1.61 1.38 1.16 1.02 1.09 1.26 1.18 0.94 0.83 0.77
0.26 0.26 0.23 0.20 0.20 0.21 0.20 0.20 0.19 0.18 0.20 0.24 0.26 0.27 0.32 0.41 0.43 0.41 0.45 0.58 0.67 0.74 0.83 0.95 1.16 1.38 1.54 1.36 1.33 1.40 1.31 1.17 1.15 1.30 1.27 1.06 0.95 1.00
0.19 0.20 0.20 0.22 0.24 0.23 0.21 0.20 0.21 0.21 0.20 0.23 0.24 0.25 0.30 0.41 0.44 0.38 0.42 0.53 0.73 0.85 0.87 0.89 1.03 1.24 1.45 1.53 1.52 1.45 1.46 1.42 1.28 1.27 1.23 1.16 1.12 1.12
0.22 0.24 0.21 0.22 0.24 0.24 0.25 0.24 0.23 0.21 0.20 0.22 0.24 0.26 0.30 0.39 0.43 0.40 0.46 0.56 0.66 0.74 0.79 0.84 0.97 1.29 1.68 1.79 1.63 1.45 1.47 1.53 1.61 1.54 1.40 1.19 1.12 1.09
0.29 0.28 0.24 0.22 0.23 0.25 0.27 0.25 0.24 0.21 0.20 0.24 0.27 0.28 0.32 0.40 0.40 0.45 0.49 0.55 0.64 0.69 0.75 0.88 1.07 1.34 1.58 1.60 1.57 1.48 1.38 1.37 1.47 1.58 1.75 1.53 1.14 0.91

GEFSNE_prec_meanprecacc_180.txt.gz
Total_Precipitation_Accumulation
0.25 0.25 0.27 0.25 0.24 0.26 0.31 0.44 0.62 0.49 0.18 0.12 0.19 0.20 0.21 0.24 0.29 0.32 0.30 0.32 0.38 0.42 0.46 0.54 0.64 0.73 0.86 1.12 1.62 2.30 2.84 3.19 3.12 2.79 2.48 2.42 2.69 3.06
0.32 0.32 0.32 0.31 0.31 0.30 0.31 0.35 0.47 0.64 0.44 0.14 0.17 0.23 0.27 0.27 0.31 0.32 0.31 0.34 0.36 0.41 0.44 0.48 0.57 0.66 0.78 0.93 1.13 1.58 2.20 2.69 3.05 3.19 3.09 2.92 2.90 3.13
0.37 0.39 0.41 0.41 0.41 0.39 0.38 0.38 0.41 0.55 0.59 0.21 0.11 0.18 0.29 0.34 0.34 0.31 0.29 0.28 0.26 0.32 0.41 0.47 0.54 0.60 0.67 0.80 0.95 1.18 1.65 2.15 2.58 3.04 3.35 3.34 3.20 3.14
0.41 0.45 0.47 0.47 0.49 0.48 0.49 0.48 0.46 0.50 0.61 0.42 0.18 0.17 0.26 0.34 0.38 0.37 0.29 0.26 0.24 0.27 0.36 0.47 0.54 0.60 0.64 0.71 0.81 0.97 1.25 1.72 2.09 2.40 2.83 3.10 3.14 3.26
0.39 0.45 0.49 0.55 0.59 0.57 0.57 0.56 0.51 0.46 0.49 0.50 0.31 0.22 0.25 0.31 0.36 0.39 0.36 0.33 0.28 0.28 0.32 0.42 0.53 0.58 0.64 0.70 0.75 0.82 0.91 1.15 1.57 2.04 2.48 2.85 2.93 2.95
0.38 0.42 0.49 0.58 0.65 0.71 0.76 0.67 0.60 0.62 0.60 0.58 0.46 0.34 0.31 0.32 0.43 0.47 0.46 0.43 0.41 0.35 0.33 0.35 0.44 0.54 0.57 0.58 0.61 0.68 0.77 0.98 1.31 1.74 2.09 2.48 2.70 2.70
0.43 0.45 0.49 0.62 0.80 0.96 1.07 1.01 0.95 0.96 0.89 0.85 0.72 0.55 0.45 0.47 0.55 0.54 0.58 0.51 0.50 0.49 0.44 0.35 0.35 0.36 0.40 0.47 0.53 0.58 0.69 0.81 0.99 1.30 1.71 2.07 2.40 2.64
0.50 0.45 0.43 0.50 0.59 0.74 0.95 1.01 1.07 1.14 1.16 1.12 1.02 0.87 0.63 0.55 0.60 0.73 0.83 0.83 0.71 0.51 0.47 0.42 0.41 0.43 0.39 0.40 0.49 0.54 0.60 0.70 0.85 1.05 1.32 1.62 1.93 2.33
0.41 0.37 0.35 0.35 0.39 0.39 0.49 0.57 0.65 0.80 1.00 1.15 1.24 1.01 0.79 0.69 0.82 0.99 1.03 1.01 0.82 0.65 0.67 0.70 0.54 0.50 0.46 0.49 0.57 0.55 0.61 0.71 0.80 0.90 1.09 1.34 1.58 1.89
0.32 0.34 0.36 0.34 0.34 0.40 0.47 0.49 0.46 0.49 0.68 0.91 1.06 0.96 0.88 0.88 1.03 1.26 1.40 1.45 1.16 0.87 0.86 1.01 0.76 0.62 0.54 0.52 0.60 0.59 0.60 0.65 0.74 0.83 0.94 1.10 1.31 1.58
0.29 0.39 0.44 0.41 0.41 0.53 0.66 0.64 0.48 0.39 0.45 0.73 0.99 1.04 1.07 1.25 1.44 1.76 2.02 2.07 1.80 1.26 1.06 1.17 1.00 0.80 0.70 0.62 0.62 0.67 0.67 0.66 0.69 0.78 0.89 0.99 1.13 1.37
0.29 0.40 0.60 0.59 0.57 0.61 0.68 0.69 0.64 0.43 0.38 0.44 0.53 0.63 0.70 0.77 1.06 1.43 1.65 1.83 1.81 1.62 1.24 1.21 1.18 1.11 1.11 0.80 0.63 0.57 0.60 0.69 0.74 0.78 0.88 0.96 1.08 1.15
0.39 0.46 0.58 0.59 0.59 0.60 0.66 0.65 0.65 0.61 0.59 0.57 0.52 0.47 0.50 0.61 0.75 1.02 1.25 1.46 1.64 1.58 1.26 1.33 1.43 1.30 1.24 0.99 0.73 0.63 0.55 0.53 0.58 0.69 0.83 0.96 1.10 1.19
0.44 0.39 0.46 0.51 0.56 0.59 0.57 0.58 0.62 0.66 0.63 0.55 0.46 0.39 0.39 0.46 0.57 0.74 0.98 1.13 1.24 1.29 1.17 1.30 1.55 1.39 1.29 1.05 0.80 0.74 0.68 0.61 0.55 0.56 0.64 0.90 1.08 1.20
0.47 0.61 0.55 0.49 0.47 0.40 0.36 0.42 0.45 0.46 0.51 0.49 0.39 0.30 0.28 0.33 0.42 0.56 0.72 0.90 1.02 1.06 1.09 1.13 1.27 1.32 1.39 1.23 0.84 0.72 0.79 0.79 0.69 0.62 0.64 0.72 0.84 0.98
0.40 0.47 0.48 0.39 0.31 0.25 0.24 0.25 0.27 0.33 0.42 0.45 0.36 0.27 0.24 0.28 0.36 0.47 0.64 0.79 0.98 1.00 0.99 1.06 1.16 1.38 1.51 1.23 0.99 0.83 0.77 0.90 0.86 0.74 0.68 0.69 0.73 0.79
0.61 0.59 0.48 0.37 0.32 0.26 0.22 0.19 0.20 0.26 0.34 0.35 0.34 0.32 0.29 0.30 0.32 0.38 0.57 0.74 0.92 0.93 0.96 1.09 1.24 1.38 1.51 1.48 1.38 1.06 0.87 0.85 0.88 0.87 0.80 0.80 0.82 0.82
0.65 0.61 0.43 0.33 0.31 0.29 0.27 0.24 0.22 0.23 0.25 0.30 0.33 0.34 0.35 0.35 0.35 0.37 0.51 0.69 0.78 0.80 0.87 1.02 1.29 1.62 1.82 1.81 1.54 1.26 1.04 0.95 1.01 1.06 0.96 0.90 0.90 0.84
0.50 0.41 0.31 0.28 0.27 0.27 0.27 0.27 0.24 0.19 0.22 0.29 0.32 0.33 0.36 0.39 0.40 0.42 0.49 0.61 0.70 0.74 0.82 0.94 1.22 1.61 1.78 1.70 1.61 1.39 1.17 1.02 1.10 1.26 1.18 0.94 0.84 0.77
0.31 0.30 0.27 0.25 0.26 0.26 0.25 0.25 0.23 0.22 0.24 0.27 0.29 0.29 0.34 0.43 0.45 0.43 0.46 0.60 0.69 0.76 0.85 0.96 1.17 1.39 1.56 1.37 1.33 1.41 1.32 1.18 1.17 1.31 1.28 1.06 0.95 1.00
0.24 0.25 0.25 0.26 0.28 0.27 0.25 0.24 0.24 0.24 0.23 0.25 0.26 0.26 0.31 0.43 0.45 0.39 0.44 0.55 0.75 0.86 0.89 0.90 1.04 1.25 1.47 1.55 1.54 1.47 1.46 1.43 1.30 1.29 1.24 1.18 1.13 1.13
0.25 0.27 0.24 0.25 0.27 0.27 0.28 0.27 0.26 0.23 0.22 0.24 0.26 0.27 0.32 0.41 0.45 0.42 0.48 0.58 0.68 0.76 0.80 0.85 0.98 1.31 1.70 1.81 1.64 1.46 1.47 1.54 1.62 1.55 1.41 1.22 1.16 1.13
0.31 0.30 0.26 0.25 0.26 0.28 0.30 0.28 0.27 0.23 0.22 0.26 0.29 0.30 0.34 0.41 0.42 0.46 0.51 0.57 0.65 0.71 0.76 0.90 1.08 1.35 1.60 1.61 1.58 1.49 1.39 1.38 1.48 1.60 1.77 1.55 1.16 0.94

GEFSNE_prec_meanprecacc_186.txt.gz
Total_Precipitation_Accumulation
0.26 0.26 0.28 0.25 0.25 0.26 0.31 0.45 0.63 0.50 0.19 0.12 0.19 0.20 0.21 0.24 0.29 0.32 0.30 0.32 0.38 0.42 0.46 0.54 0.64 0.73 0.86 1.12 1.62 2.30 2.84 3.19 3.12 2.79 2.49 2.43 2.70 3.07
0.34 0.34 0.33 0.32 0.31 0.31 0.32 0.36 0.49 0.66 0.46 0.14 0.18 0.24 0.27 0.28 0.31 0.32 0.31 0.34 0.36 0.41 0.44 0.48 0.57 0.66 0.78 0.93 1.13 1.58 2.20 2.70 3.05 3.19 3.09 2.93 2.91 3.14
0.39 0.41 0.42 0.42 0.42 0.40 0.40 0.40 0.43 0.57 0.61 0.21 0.12 0.18 0.29 0.34 0.34 0.31 0.29 0.28 0.26 0.32 0.41 0.47 0.54 0.60 0.67 0.80 0.95 1.18 1.65 2.15 2.58 3.05 3.36 3.35 3.20 3.15
0.44 0.47 0.48 0.48 0.50 0.49 0.50 0.49 0.48 0.51 0.63 0.43 0.19 0.18 0.26 0.34 0.38 0.37 0.30 0.27 0.24 0.27 0.36 0.47 0.54 0.60 0.65 0.71 0.81 0.97 1.25 1.72 2.09 2.40 2.84 3.10 3.15 3.28
0.42 0.46 0.51 0.57 0.60 0.58 0.59 0.58 0.53 0.48 0.51 0.53 0.32 0.23 0.26 0.31 0.36 0.39 0.36 0.33 0.29 0.28 0.32 0.42 0.53 0.58 0.64 0.70 0.75 0.82 0.92 1.15 1.57 2.05 2.48 2.85 2.93 2.96
0.42 0.46 0.51 0.60 0.67 0.73 0.78 0.70 0.63 0.65 0.63 0.61 0.48 0.35 0.32 0.33 0.44 0.48 0.46 0.43 0.42 0.36 0.34 0.36 0.45 0.54 0.57 0.58 0.61 0.68 0.77 0.98 1.31 1.74 2.10 2.48 2.71 2.71
0.47 0.49 0.53 0.65 0.82 0.98 1.09 1.03 0.97 0.99 0.92 0.88 0.74 0.56 0.46 0.49 0.55 0.55 0.59 0.52 0.51 0.49 0.44 0.36 0.35 0.36 0.40 0.47 0.53 0.58 0.69 0.81 0.99 1.30 1.72 2.07 2.41 2.64
0.53 0.48 0.47 0.53 0.61 0.76 0.96 1.03 1.09 1.16 1.19 1.14 1.05 0.89 0.64 0.57 0.61 0.74 0.84 0.84 0.72 0.51 0.47 0.42 0.41 0.43 0.39 0.40 0.49 0.54 0.60 0.70 0.85 1.06 1.32 1.63 1.93 2.33
0.45 0.41 0.39 0.38 0.41 0.40 0.51 0.59 0.68 0.82 1.02 1.16 1.25 1.02 0.80 0.70 0.83 1.01 1.05 1.03 0.83 0.65 0.68 0.71 0.54 0.51 0.46 0.50 0.58 0.56 0.61 0.71 0.80 0.90 1.09 1.34 1.59 1.90
0.38 0.39 0.40 0.37 0.36 0.42 0.49 0.51 0.48 0.51 0.69 0.92 1.07 0.97 0.89 0.89 1.05 1.28 1.42 1.47 1.18 0.89 0.87 1.03 0.77 0.63 0.55 0.53 0.60 0.60 0.60 0.66 0.74 0.83 0.94 1.10 1.31 1.58
0.35 0.45 0.50 0.44 0.44 0.56 0.69 0.67 0.51 0.41 0.47 0.75 1.00 1.05 1.09 1.27 1.46 1.79 2.04 2.10 1.83 1.29 1.08 1.19 1.02 0.82 0.71 0.63 0.63 0.68 0.67 0.66 0.69 0.78 0.90 1.00 1.13 1.37
0.34 0.45 0.67 0.63 0.61 0.65 0.73 0.74 0.68 0.47 0.42 0.47 0.56 0.66 0.72 0.79 1.08 1.45 1.67 1.85 1.85 1.66 1.27 1.23 1.20 1.13 1.13 0.81 0.64 0.58 0.60 0.70 0.74 0.78 0.88 0.97 1.09 1.15
0.43 0.49 0.62 0.64 0.63 0.65 0.70 0.70 0.70 0.66 0.63 0.62 0.56 0.51 0.53 0.64 0.78 1.05 1.28 1.49 1.68 1.61 1.29 1.36 1.46 1.33 1.27 1.02 0.74 0.64 0.55 0.54 0.58 0.70 0.83 0.96 1.10 1.19
0.48 0.42 0.49 0.54 0.59 0.63 0.61 0.63 0.67 0.71 0.67 0.60 0.51 0.43 0.42 0.49 0.60 0.77 1.02 1.16 1.27 1.32 1.20 1.34 1.59 1.43 1.32 1.08 0.82 0.75 0.68 0.62 0.55 0.56 0.64 0.91 1.09 1.21
0.50 0.64 0.58 0.53 0.50 0.43 0.40 0.46 0.49 0.49 0.54 0.52 0.43 0.34 0.31 0.36 0.46 0.60 0.77 0.95 1.07 1.11 1.13 1.17 1.30 1.35 1.42 1.26 0.86 0.73 0.80 0.80 0.70 0.63 0.65 0.73 0.85 0.99
0.45 0.52 0.52 0.42 0.35 0.29 0.28 0.29 0.30 0.36 0.45 0.48 0.40 0.32 0.29 0.34 0.42 0.52 0.69 0.83 1.02 1.04 1.03 1.09 1.19 1.40 1.53 1.25 1.02 0.84 0.78 0.91 0.87 0.75 0.69 0.70 0.74 0.79
0.66 0.64 0.52 0.41 0.35 0.30 0.25 0.22 0.23 0.30 0.39 0.40 0.40 0.38 0.36 0.37 0.39 0.44 0.62 0.79 0.97 0.97 1.00 1.12 1.25 1.40 1.52 1.50 1.40 1.07 0.88 0.86 0.89 0.88 0.81 0.81 0.83 0.82
0.71 0.67 0.48 0.37 0.35 0.32 0.31 0.28 0.26 0.28 0.30 0.35 0.39 0.41 0.42 0.42 0.41 0.42 0.57 0.73 0.82 0.82 0.89 1.04 1.30 1.64 1.84 1.83 1.55 1.27 1.04 0.96 1.02 1.06 0.97 0.91 0.90 0.84
0.56 0.47 0.37 0.33 0.31 0.30 0.31 0.31 0.28 0.25 0.28 0.35 0.39 0.40 0.43 0.45 0.46 0.47 0.52 0.64 0.73 0.76 0.84 0.96 1.24 1.63 1.81 1.71 1.62 1.39 1.18 1.03 1.10 1.27 1.19 0.95 0.84 0.78
0.38 0.37 0.34 0.30 0.30 0.31 0.30 0.30 0.29 0.28 0.31 0.34 0.35 0.35 0.40 0.48 0.49 0.45 0.49 0.62 0.71 0.78 0.87 0.98 1.19 1.41 1.58 1.39 1.35 1.42 1.33 1.19 1.19 1.32 1.28 1.07 0.96 1.00
0.30 0.31 0.30 0.31 0.32 0.31 0.29 0.28 0.29 0.29 0.28 0.29 0.30 0.30 0.34 0.45 0.47 0.41 0.45 0.57 0.77 0.88 0.91 0.92 1.05 1.26 1.49 1.58 1.56 1.48 1.47 1.44 1.32 1.31 1.27 1.21 1.15 1.14
0.30 0.31 0.29 0.29 0.31 0.32 0.32 0.30 0.30 0.27 0.25 0.28 0.29 0.30 0.34 0.43 0.46 0.44 0.49 0.60 0.70 0.77 0.82 0.86 1.00 1.33 1.73 1.84 1.66 1.47 1.49 1.55 1.63 1.56 1.43 1.25 1.21 1.17
0.35 0.33 0.29 0.27 0.29 0.31 0.33 0.32 0.30 0.28 0.26 0.30 0.33 0.33 0.36 0.43 0.44 0.48 0.53 0.59 0.67 0.73 0.78 0.91 1.10 1.38 1.62 1.63 1.60 1.51 1.40 1.39 1.49 1.61 1.78 1.56 1.18 0.96

GEFSNE_prec_meanprecacc_192.txt.gz
Total_Precipitation_Accumulation
0.30 0.30 0.32 0.29 0.28 0.30 0.35 0.49 0.66 0.53 0.20 0.14 0.21 0.22 0.23 0.26 0.31 0.34 0.32 0.33 0.39 0.42 0.46 0.54 0.65 0.74 0.86 1.12 1.63 2.30 2.84 3.19 3.12 2.79 2.49 2.43 2.71 3.09
0.39 0.39 0.38 0.36 0.36 0.36 0.38 0.41 0.54 0.70 0.49 0.16 0.19 0.25 0.29 0.29 0.33 0.34 0.33 0.36 0.37 0.41 0.45 0.49 0.57 0.66 0.79 0.94 1.14 1.58 2.21 2.70 3.05 3.19 3.10 2.94 2.92 3.16
0.45 0.47 0.48 0.48 0.49 0.47 0.48 0.49 0.51 0.65 0.66 0.24 0.14 0.20 0.32 0.36 0.35 0.33 0.31 0.30 0.27 0.33 0.42 0.48 0.55 0.61 0.68 0.81 0.96 1.19 1.66 2.16 2.59 3.05 3.36 3.35 3.21 3.16
0.49 0.53 0.55 0.55 0.57 0.56 0.58 0.57 0.56 0.59 0.69 0.48 0.22 0.21 0.29 0.36 0.41 0.39 0.31 0.28 0.26 0.28 0.38 0.49 0.55 0.61 0.65 0.72 0.82 0.98 1.26 1.74 2.10 2.41 2.85 3.11 3.16 3.29
0.46 0.51 0.56 0.62 0.66 0.64 0.65 0.64 0.58 0.53 0.56 0.57 0.37 0.27 0.29 0.34 0.39 0.41 0.38 0.35 0.30 0.30 0.34 0.45 0.55 0.61 0.67 0.72 0.77 0.83 0.93 1.17 1.58 2.05 2.49 2.86 2.94 2.97
0.46 0.50 0.56 0.65 0.73 0.80 0.86 0.77 0.69 0.70 0.68 0.67 0.52 0.39 0.35 0.35 0.46 0.50 0.48 0.45 0.44 0.38 0.37 0.39 0.48 0.57 0.60 0.60 0.63 0.69 0.78 0.99 1.32 1.75 2.10 2.49 2.71 2.71
0.51 0.52 0.57 0.70 0.88 1.05 1.16 1.11 1.05 1.05 0.98 0.94 0.79 0.61 0.50 0.51 0.58 0.57 0.61 0.54 0.53 0.51 0.46 0.38 0.37 0.38 0.42 0.50 0.56 0.60 0.70 0.82 1.00 1.31 1.72 2.08 2.41 2.65
0.56 0.51 0.50 0.57 0.67 0.82 1.03 1.09 1.16 1.24 1.26 1.20 1.10 0.93 0.68 0.59 0.64 0.77 0.88 0.88 0.76 0.54 0.49 0.44 0.43 0.45 0.40 0.42 0.51 0.56 0.61 0.71 0.86 1.07 1.33 1.64 1.95 2.34
0.49 0.44 0.43 0.43 0.47 0.47 0.58 0.66 0.74 0.90 1.10 1.23 1.30 1.06 0.83 0.73 0.87 1.05 1.08 1.06 0.86 0.68 0.70 0.73 0.56 0.53 0.47 0.51 0.60 0.58 0.63 0.73 0.81 0.92 1.11 1.35 1.60 1.91
0.41 0.43 0.44 0.42 0.42 0.48 0.56 0.58 0.55 0.58 0.76 0.98 1.12 1.01 0.93 0.93 1.08 1.32 1.45 1.50 1.20 0.90 0.88 1.05 0.79 0.65 0.57 0.55 0.62 0.62 0.63 0.68 0.76 0.86 0.97 1.12 1.33 1.59
0.39 0.50 0.55 0.50 0.51 0.63 0.75 0.73 0.58 0.49 0.54 0.80 1.05 1.10 1.14 1.32 1.51 1.83 2.08 2.14 1.86 1.31 1.09 1.21 1.04 0.84 0.73 0.65 0.65 0.70 0.70 0.68 0.71 0.80 0.91 1.01 1.14 1.38
0.39 0.51 0.73 0.70 0.68 0.72 0.78 0.80 0.75 0.54 0.48 0.52 0.61 0.70 0.76 0.84 1.13 1.49 1.72 1.90 1.89 1.69 1.29 1.25 1.22 1.15 1.16 0.84 0.67 0.61 0.63 0.72 0.76 0.80 0.89 0.98 1.10 1.16
0.49 0.54 0.67 0.71 0.70 0.71 0.76 0.76 0.76 0.71 0.69 0.67 0.61 0.55 0.57 0.68 0.83 1.09 1.32 1.53 1.71 1.65 1.32 1.38 1.48 1.36 1.30 1.05 0.78 0.67 0.59 0.57 0.61 0.72 0.85 0.97 1.11 1.20
0.53 0.46 0.53 0.60 0.66 0.68 0.67 0.69 0.72 0.75 0.71 0.65 0.55 0.47 0.47 0.54 0.65 0.82 1.06 1.20 1.30 1.35 1.23 1.36 1.61 1.46 1.36 1.12 0.85 0.78 0.71 0.64 0.57 0.58 0.66 0.92 1.10 1.21
0.56 0.70 0.64 0.58 0.55 0.50 0.46 0.52 0.55 0.53 0.58 0.56 0.47 0.37 0.34 0.40 0.50 0.65 0.81 0.99 1.11 1.14 1.17 1.20 1.33 1.38 1.45 1.29 0.88 0.76 0.82 0.82 0.72 0.65 0.66 0.74 0.86 1.00
0.52 0.61 0.59 0.49 0.41 0.36 0.34 0.34 0.34 0.40 0.48 0.52 0.43 0.35 0.32 0.37 0.46 0.57 0.74 0.88 1.08 1.10 1.07 1.12 1.21 1.42 1.56 1.28 1.04 0.87 0.80 0.93 0.88 0.76 0.70 0.71 0.75 0.80
0.72 0.71 0.60 0.47 0.42 0.36 0.32 0.28 0.28 0.35 0.43 0.44 0.44 0.42 0.40 0.41 0.44 0.49 0.67 0.84 1.02 1.02 1.04 1.15 1.28 1.42 1.55 1.52 1.42 1.09 0.90 0.88 0.90 0.89 0.82 0.83 0.84 0.83
0.75 0.72 0.54 0.43 0.40 0.37 0.37 0.34 0.30 0.32 0.34 0.38 0.43 0.45 0.46 0.47 0.46 0.48 0.62 0.79 0.88 0.87 0.93 1.06 1.33 1.66 1.87 1.86 1.57 1.29 1.06 0.97 1.03 1.07 0.98 0.93 0.92 0.85
0.61 0.51 0.41 0.37 0.36 0.35 0.35 0.35 0.32 0.27 0.31 0.38 0.43 0.44 0.48 0.51 0.51 0.53 0.58 0.69 0.77 0.80 0.87 0.99 1.26 1.66 1.84 1.74 1.64 1.40 1.19 1.04 1.12 1.28 1.20 0.96 0.85 0.78
0.42 0.41 0.38 0.35 0.35 0.35 0.33 0.33 0.32 0.31 0.33 0.37 0.38 0.39 0.44 0.51 0.52 0.49 0.52 0.65 0.74 0.81 0.90 1.02 1.22 1.44 1.62 1.42 1.37 1.43 1.34 1.21 1.20 1.34 1.30 1.08 0.96 1.01
0.35 0.35 0.35 0.36 0.37 0.35 0.33 0.31 0.32 0.32 0.31 0.33 0.34 0.34 0.38 0.49 0.50 0.44 0.48 0.59 0.80 0.91 0.94 0.95 1.08 1.29 1.52 1.61 1.59 1.50 1.49 1.45 1.33 1.33 1.29 1.23 1.17 1.16
0.35 0.36 0.33 0.34 0.36 0.37 0.37 0.35 0.35 0.32 0.30 0.32 0.34 0.35 0.38 0.47 0.50 0.47 0.52 0.63 0.73 0.81 0.85 0.90 1.03 1.36 1.76 1.87 1.69 1.49 1.50 1.56 1.64 1.57 1.45 1.29 1.27 1.23
0.39 0.37 0.34 0.32 0.34 0.36 0.38 0.37 0.35 0.33 0.31 0.36 0.39 0.38 0.41 0.47 0.47 0.51 0.56 0.62 0.71 0.77 0.82 0.96 1.14 1.41 1.65 1.66 1.62 1.53 1.42 1.41 1.51 1.62 1.80 1.58 1.20 0.99